Flag for Germany Weather past 2 weeks in Mörfelden-Walldorf, Hesse, Germany

Now
39 °F

Sprinkles. Partly sunny.


Feels Like: 33 °F
Forecast: 36 / 41 °F
Wind: 9 mph from West

Location: Frankfurt-M-Flughafen Airport

Current Time: Jan 27, 2015 at 12:04:58 PM

Latest Report: Jan 27, 2015 at 11:20 AM


Visibility: N/A

Pressure: 30.18 "Hg

Humidity: 87%

Dew point: 36 °F

Location of Mörfelden-WalldorfLocation

Historic Weather in Mörfelden-Walldorf — Graph

°F

Mörfelden-Walldorf temperature yesterday

Maximum temperature yesterday: 39 °F (at 11:50 PM)
Minimum temperature yesterday: 34 °F (at 12:20 AM)
Average temperature yesterday: 35 °F

Past Weeks' High & Low Weather Summary

 TemperatureHumidityPressure
High57 °F (Jan 13, 3:20 PM)100% (Jan 15, 1:50 AM)30.42 "Hg (Jan 15, 1:50 AM)
Low25 °F (Jan 24, 1:50 AM)39% (Jan 13, 3:20 PM)29.62 "Hg (Jan 15, 6:20 PM)
Average37 °F85%30.00 "Hg
* Reported Jan 12 10:20 AM — Jan 27 10:50 AM, Mörfelden-Walldorf, Weather by CustomWeather, © 2014

Note: Actual official high and low records may vary slightly from our data, if they occured in-between our weather recording intervals... More about our weather records

Advertising

Mörfelden-Walldorf weather history for previous 24 hours

 ConditionsComfort  
Time TempWeatherWind HumidityBarometerVisibility
10:50 AM
Jan 27
39 °FPartly sunny.10 mph81%30.18 "HgN/A
10:20 AM37 °FBroken clouds.10 mph87%30.18 "HgN/A
9:50 AM37 °FPartly sunny.8 mph87%30.18 "HgN/A
9:20 AM36 °FBroken clouds.9 mph93%30.18 "HgN/A
8:50 AM34 °FBroken clouds.7 mph93%30.15 "HgN/A
8:20 AM34 °FScattered clouds.5 mph87%30.15 "HgN/A
7:50 AM34 °FPassing clouds.7 mph93%30.15 "HgN/A
7:20 AM36 °FPassing clouds.7 mph87%30.15 "HgN/A
6:50 AM36 °FPassing clouds.2 mph87%30.15 "HgN/A
6:20 AM36 °FPassing clouds.5 mph93%30.15 "HgN/A
5:50 AM36 °FPassing clouds.6 mph87%30.15 "HgN/A
5:20 AM36 °FPassing clouds.6 mph87%30.12 "HgN/A
4:50 AM36 °FPassing clouds.5 mph93%30.12 "HgN/A
4:20 AM37 °FPassing clouds.5 mph87%30.12 "HgN/A
3:50 AM39 °FPassing clouds.6 mph81%30.12 "HgN/A
3:20 AM39 °FPassing clouds.8 mph81%30.09 "HgN/A
2:50 AM37 °FPassing clouds.6 mph87%30.09 "HgN/A
2:20 AM36 °FPassing clouds.6 mph93%30.09 "HgN/A
1:50 AM37 °FPassing clouds.7 mph93%30.09 "HgN/A
1:20 AM39 °FPassing clouds.7 mph87%30.09 "HgN/A
12:50 AM41 °FSprinkles. Passing clouds.14 mph81%30.09 "HgN/A
12:20 AM39 °FPassing clouds.6 mph87%30.09 "HgN/A
11:50 PM
Jan 26
39 °FPartly cloudy.7 mph87%30.09 "HgN/A
11:20 PM37 °FPartly cloudy.7 mph93%30.07 "HgN/A
10:50 PM36 °FLight rain. Partly cloudy.6 mph100%30.07 "Hg6 mi
10:20 PM36 °FPassing clouds.3 mph100%30.07 "HgN/A
9:50 PM36 °FPassing clouds.9 mph100%30.07 "HgN/A
9:20 PM36 °FPartly cloudy.8 mph100%30.07 "Hg6 mi
8:50 PM36 °FPartly cloudy.9 mph100%30.07 "Hg5 mi
8:20 PM36 °FDrizzle. Fog.10 mph93%30.07 "Hg3 mi
7:50 PM34 °FDrizzle. Fog.10 mph100%30.07 "Hg3 mi
7:20 PM34 °FDrizzle. Fog.12 mph100%30.07 "Hg3 mi
6:50 PM34 °FDrizzle. Low clouds.10 mph100%30.07 "Hg3 mi
6:20 PM34 °FDrizzle. Low clouds.10 mph100%30.07 "Hg3 mi
5:50 PM34 °FLight rain. Passing clouds.10 mph100%30.09 "Hg4 mi
5:20 PM34 °FLight rain. Fog.10 mph100%30.09 "Hg3 mi
4:50 PM34 °FLight rain. Fog.10 mph100%30.09 "Hg2 mi
4:20 PM34 °FLight rain. Fog.10 mph100%30.09 "Hg2 mi
3:50 PM34 °FLight rain. Fog.10 mph100%30.12 "Hg2 mi
3:20 PM34 °FLight rain. Fog.12 mph100%30.12 "Hg3 mi
2:50 PM36 °FRain. Partly sunny.12 mph93%30.12 "Hg4 mi
2:20 PM36 °FRain. Partly sunny.13 mph93%30.15 "Hg4 mi
1:50 PM36 °FLight rain. Fog.13 mph93%30.15 "Hg3 mi
1:20 PM36 °FLight rain. Fog.12 mph100%30.18 "Hg3 mi
12:50 PM36 °FLight rain. Fog.10 mph93%30.18 "Hg3 mi
12:20 PM36 °FLight rain. Fog.8 mph93%30.21 "Hg3 mi
Weather by CustomWeather, © 2014

See weather overviewHow to use our weather pages